DW9029 Weather Reports


Display with metric or nautical units.
time (UTC)temp
F
wind
direction
speed
MPH
gust
MPH
rain 1hr
in
rain 24hr
in
rain mn
in
humidity
%
barometer
mb
20260504031905 58 0 0.0 0.0 0.00 0.00 0.00 85 1013.1
20260504031405 58 0 0.0 0.0 0.00 0.00 0.00 86 1013.1
20260504030905 58 0 0.0 0.0 0.00 0.00 0.00 86 1013.1
20260504030404 58 0 0.0 0.0 0.00 0.00 0.00 86 1013.1
20260504024904 58 0 0.0 0.0 0.00 0.00 0.00 84 1013.0
20260504024404 58 0 0.0 0.0 0.00 0.00 0.00 84 1013.0
20260504023904 59 0 0.0 0.0 0.00 0.00 0.00 84 1012.9
20260504023404 59 0 0.0 0.0 0.00 0.00 0.00 84 1012.9
20260504021404 59 279 0.0 0.0 0.00 0.00 0.00 84 1012.9
20260504020404 59 264 0.0 1.0 0.00 0.00 0.00 84 1012.9
20260504014405 59 250 0.0 0.0 0.00 0.00 0.00 84 1012.9
20260504013404 59 186 0.0 0.0 0.00 0.00 0.00 84 1013.1
20260504011904 58 183 0.0 0.0 0.00 0.00 0.00 83 1013.1
20260504011404 58 183 0.0 0.0 0.00 0.00 0.00 83 1013.1
20260504010905 58 183 0.0 0.0 0.00 0.00 0.00 83 1013.1
20260504010404 59 183 0.0 0.0 0.00 0.00 0.00 83 1013.1
20260504004904 59 183 0.0 0.0 0.00 0.00 0.00 82 1013.2
20260504004404 59 183 0.0 0.0 0.00 0.00 0.00 82 1013.2
20260504003904 59 183 0.0 0.0 0.00 0.00 0.00 82 1013.2
20260504003404 59 183 0.0 3.0 0.00 0.00 0.00 82 1013.3
20260504001904 60 187 0.0 0.0 0.00 0.00 0.00 82 1013.5
20260504001405 60 188 0.0 2.0 0.00 0.00 0.00 82 1013.5
20260504000904 60 192 0.0 3.0 0.00 0.00 0.00 82 1013.5
20260504000404 60 178 0.0 0.0 0.00 0.00 0.00 82 1013.6
20260503234905 60 185 0.0 2.0 0.00 0.00 0.00 81 1013.6
20260503234404 60 196 0.0 3.0 0.00 0.00 0.00 81 1013.7
20260503233904 60 205 0.0 2.0 0.00 0.00 0.00 81 1013.6
20260503233404 60 179 0.0 3.0 0.00 0.00 0.00 81 1013.7
20260503231405 60 187 0.0 0.0 0.00 0.00 0.00 81 1013.7
20260503230405 60 188 0.0 0.0 0.00 0.00 0.00 80 1013.7
20260503224904 60 182 0.0 0.0 0.00 0.00 0.00 79 1013.9
20260503224404 60 182 0.0 0.0 0.00 0.00 0.00 79 1013.9
20260503223904 60 184 0.0 0.0 0.00 0.00 0.00 79 1014.0
20260503223404 60 184 0.0 0.0 0.00 0.00 0.00 79 1013.9
20260503221904 60 195 1.0 5.0 0.00 0.00 0.00 79 1013.9
20260503221404 61 182 2.0 5.0 0.00 0.00 0.00 79 1013.9
20260503220404 60 179 0.0 3.0 0.00 0.00 0.00 79 1013.9
20260503214904 61 168 0.0 0.0 0.00 0.00 0.00 78 1013.9
20260503214404 61 166 0.0 0.0 0.00 0.00 0.00 78 1013.9
20260503213905 61 161 0.0 0.0 0.00 0.00 0.00 77 1013.8
20260503213405 61 163 0.0 2.0 0.00 0.00 0.00 77 1013.8
20260503211904 62 198 0.0 0.0 0.00 0.00 0.00 75 1013.8
20260503211404 62 195 0.0 6.0 0.00 0.00 0.00 75 1013.7
20260503210904 62 209 0.0 7.0 0.00 0.00 0.00 75 1013.7
20260503210404 62 221 1.0 7.0 0.00 0.00 0.00 75 1013.7
20260503204905 62 251 1.0 6.0 0.00 0.00 0.00 74 1013.5
20260503204404 63 221 1.0 5.0 0.00 0.00 0.00 74 1013.4
20260503203904 63 220 1.0 6.0 0.00 0.00 0.00 74 1013.4
20260503203404 63 254 4.0 8.0 0.00 0.00 0.00 74 1013.4
20260503201904 63 214 3.0 9.0 0.00 0.00 0.00 73 1013.1
20260503201404 63 236 3.0 7.0 0.00 0.00 0.00 73 1013.0
20260503200904 63 237 2.0 8.0 0.00 0.00 0.00 72 1013.0
20260503200404 64 244 3.0 10.0 0.00 0.00 0.00 72 1012.9
20260503194904 64 224 3.0 10.0 0.00 0.00 0.00 70 1012.7
20260503194404 64 240 2.0 9.0 0.00 0.00 0.00 70 1012.7
20260503193904 64 234 3.0 8.0 0.00 0.00 0.00 69 1012.6
20260503193404 64 239 3.0 9.0 0.00 0.00 0.00 69 1012.5
20260503191904 65 227 4.0 8.0 0.00 0.00 0.00 66 1012.5
20260503191404 65 238 3.0 8.0 0.00 0.00 0.00 66 1012.5
20260503190904 65 249 5.0 9.0 0.00 0.00 0.00 66 1012.5
20260503190404 66 232 2.0 14.0 0.00 0.00 0.00 65 1012.4
20260503184904 66 227 2.0 7.0 0.00 0.00 0.00 62 1012.2
20260503184404 66 233 3.0 10.0 0.00 0.00 0.00 62 1012.1
20260503183904 67 245 4.0 12.0 0.00 0.00 0.00 61 1012.1
20260503183404 67 214 5.0 12.0 0.00 0.00 0.00 60 1012.1
20260503181905 68 220 6.0 10.0 0.00 0.00 0.00 55 1012.1
20260503181404 68 240 4.0 12.0 0.00 0.00 0.00 55 1012.0
20260503180904 68 245 5.0 12.0 0.00 0.00 0.00 58 1012.0
20260503180404 68 234 5.0 12.0 0.00 0.00 0.00 59 1011.9
20260503174904 69 224 5.0 10.0 0.00 0.00 0.00 58 1011.9
20260503173904 70 225 5.0 14.0 0.00 0.00 0.00 58 1011.9
20260503173405 70 212 6.0 15.0 0.00 0.00 0.00 57 1011.8
20260503171905 71 205 5.0 13.0 0.00 0.00 0.00 56 1011.8
20260503170904 71 238 5.0 13.0 0.00 0.00 0.00 55 1011.8
20260503170404 71 224 6.0 15.0 0.00 0.00 0.00 53 1011.8
20260503150904 73 254 10.0 18.0 0.00 0.00 0.00 46 1012.1
20260503150404 74 245 4.0 16.0 0.00 0.00 0.00 47 1012.0
20260503131404 72 193 6.0 12.0 0.00 0.00 0.00 53 1012.9
20260503130904 72 234 5.0 10.0 0.00 0.00 0.00 52 1012.9
20260503130404 72 243 6.0 13.0 0.00 0.00 0.00 54 1013.0
20260503110404 70 214 7.0 10.0 0.00 0.00 0.00 58 1014.1
20260503090404 67 187 1.0 10.0 0.00 0.00 0.00 76 1014.3
20260503081404 64 258 1.0 3.0 0.00 0.00 0.00 81 1014.3
20260503080904 64 213 0.0 0.0 0.00 0.00 0.00 82 1014.3
20260503071905 62 263 0.0 0.0 0.00 0.00 0.00 87 1014.1
20260503071404 62 278 0.0 0.0 0.00 0.00 0.00 87 1014.1
20260503070904 62 286 0.0 0.0 0.00 0.00 0.00 87 1014.2
20260503070404 62 286 0.0 5.0 0.00 0.00 0.00 88 1014.1
20260503054904 62 264 1.0 3.0 0.00 0.00 0.00 88 1013.9
20260503054404 62 225 0.0 0.0 0.00 0.00 0.00 88 1013.8
20260503053904 62 221 0.0 0.0 0.00 0.00 0.00 88 1013.8
20260503053404 61 213 0.0 0.0 0.00 0.00 0.00 88 1013.7
20260503051904 61 200 0.0 0.0 0.00 0.00 0.00 88 1013.6
20260503051404 61 200 0.0 0.0 0.00 0.00 0.00 88 1013.6
20260503050404 61 200 0.0 0.0 0.00 0.00 0.00 88 1013.6
20260503044904 62 227 0.0 0.0 0.00 0.00 0.00 88 1013.6
20260503044404 61 227 0.0 0.0 0.00 0.00 0.00 88 1013.6
20260503043904 61 209 1.0 6.0 0.00 0.00 0.00 88 1013.6
20260503041904 61 200 1.0 7.0 0.00 0.00 0.00 88 1013.7
20260503041405 61 215 0.0 0.0 0.00 0.00 0.00 87 1013.7
20260503040904 61 219 0.0 0.0 0.00 0.00 0.00 87 1013.7
20260503040404 61 220 0.0 0.0 0.00 0.00 0.00 87 1013.7
20260503034904 61 220 0.0 0.0 0.00 0.00 0.00 87 1013.9
20260503034404 61 220 0.0 0.0 0.00 0.00 0.00 87 1013.8
20260503033904 61 220 0.0 0.0 0.00 0.00 0.00 87 1013.8
20260503033404 61 220 0.0 0.0 0.00 0.00 0.00 86 1013.9